sat.trackr.live / text

‹ back to catalog

STARLINK-32285

NORAD 60355 · 2024-138A

PAYLOAD ACTIVE UNKNOWN

§ Identity

Operator
Country
US
Launch date
2024-08-04
Launch site
AFWTR
Launch vehicle
Mass (kg)
RCS (m²)

Purposes: comms

External: N2YO · Heavens-Above · Gunter

§ Orbital elements

Epoch: 2026-05-25T04:21:52.405920Z

Period
94.11 min
Inclination
53.1620°
Eccentricity
0.0001366
Mean motion
15.30192996 rev/d
Perigee alt
474.3 km
Apogee alt
476.2 km
Semi-major
6,853.4 km
B*
3.0685e-5
RAAN
313.9721°
Arg perigee
89.5385°
Mean anomaly
270.5773°
Rev number
10,234

§ Raw data

STARLINK-322851 60355U 24138A   26145.18185655  .00000549  00000+0  30685-4 0  99972 60355  53.1620 313.9721 0001366  89.5385 270.5773 15.30192996102344

JSON: /api/v1/satellites/60355 · /tle

For live sub-satellite position, see the globe view (requires WebGL).

§ Visibility from observer

Set your observer location to see the next 7 days of passes ≥ 10°. The values pass through the URL so the page stays shareable.

No JS? Fill the form by hand. The geolocation button needs JavaScript.